Celoron, NY

4:14 PM EDT on August 29, 2016 (GMT -0400)
Chautauqua County-Jamestown

Weather History for KJHW - April, 2013

Change the Weather History Date:

Friday, April 19, 2013

  Actual Average Record
Temperature  
Mean Temperature 52 °F -  
Max Temperature 66 °F 56 °F 86 °F (1976)
Min Temperature 37 °F 33 °F 24 °F (2001)
Degree Days  
Heating Degree Days 14    
Growing Degree Days 2 (Base 50)    
Moisture  
Dew Point 44 °F    
Average Humidity 75    
Maximum Humidity 93    
Minimum Humidity 64    
Precipitation  
Precipitation 0.23 in - - ()
Sea Level Pressure  
Sea Level Pressure 29.64 in    
Wind  
Wind Speed 13 mph (SW)    
Max Wind Speed 28 mph    
Max Gust Speed 44 mph    
Visibility 10 miles    
Events      
Averages and records for this station are not official NWS values.
T = Trace of Precipitation, MM = Missing Value Source: NWS Daily Summary

Daily Weather History Graph

Daily Weather History Graph

Search for Another Location

Airport or City:

Trip Planner

Search our weather history database for the weather conditions in past years. The results will help you decide how hot, cold, wet, or windy it might be!

Date:

Astronomy

Apr. 19, 2013 Rise Set
Actual Time 6:29 AM EDT 8:03 PM EDT
Civil Twilight 6:00 AM EDT 8:32 PM EDT
Nautical Twilight 5:24 AM EDT 9:08 PM EDT
Astronomical Twilight 4:47 AM EDT 9:46 PM EDT
Moon 1:39 PM EDT (4/19) 2:51 AM EDT (4/19)
Length of Visible Light 14h 32m
Length of Day
13h 33m
First Quarter, 61% of the Moon is Illuminated
Apr 19
First Quarter
Apr 25
Full
May 2
Last Quarter
May 9
New
May 18
First Quarter

Hourly Weather History & Observations

Time (EDT) Temp. Windchill Dew Point Humidity Pressure Visibility Wind Dir Wind Speed Gust Speed Precip Events Conditions
12:15 AM 64.4 °F - 53.6 °F 68% 29.76 in 10.0 mi South 12.7 mph 20.7 mph N/A   Scattered Clouds
12:35 AM 66.2 °F - 53.6 °F 64% 29.76 in 10.0 mi South 10.4 mph 21.9 mph N/A   Mostly Cloudy
12:55 AM 66.2 °F - 53.6 °F 64% 29.76 in 10.0 mi South 12.7 mph 18.4 mph N/A   Overcast
1:15 AM 66.2 °F - 53.6 °F 64% 29.76 in 10.0 mi South 10.4 mph 18.4 mph N/A   Overcast
1:35 AM 66.2 °F - 53.6 °F 64% 29.74 in 10.0 mi South 9.2 mph 18.4 mph N/A   Overcast
1:55 AM 64.4 °F - 53.6 °F 68% 29.73 in 10.0 mi South 9.2 mph 19.6 mph N/A   Mostly Cloudy
2:15 AM 64.4 °F - 53.6 °F 68% 29.71 in 10.0 mi South 12.7 mph 23.0 mph N/A   Clear
2:35 AM 64.4 °F - 53.6 °F 68% 29.71 in 10.0 mi South 15.0 mph 18.4 mph N/A   Clear
2:55 AM 64.4 °F - 53.6 °F 68% 29.70 in 10.0 mi South 11.5 mph 19.6 mph N/A   Partly Cloudy
3:15 AM 64.4 °F - 51.8 °F 64% 29.69 in 10.0 mi South 13.8 mph 17.3 mph N/A   Partly Cloudy
3:35 AM 64.4 °F - 51.8 °F 64% 29.68 in 10.0 mi South 11.5 mph 23.0 mph N/A   Clear
3:55 AM 64.4 °F - 51.8 °F 64% 29.67 in 10.0 mi South 12.7 mph 20.7 mph N/A   Clear
4:15 AM 62.6 °F - 51.8 °F 68% 29.65 in 10.0 mi South 12.7 mph 21.9 mph N/A   Clear
4:35 AM 62.6 °F - 51.8 °F 68% 29.66 in 10.0 mi South 13.8 mph 20.7 mph N/A   Clear
4:55 AM 62.6 °F - 51.8 °F 68% 29.66 in 10.0 mi South 12.7 mph 23.0 mph N/A   Clear
5:15 AM 62.6 °F - 51.8 °F 68% 29.65 in 10.0 mi South 12.7 mph 20.7 mph N/A   Clear
5:35 AM 62.6 °F - 51.8 °F 68% 29.64 in 10.0 mi South 13.8 mph 20.7 mph N/A   Clear
5:55 AM 62.6 °F - 51.8 °F 68% 29.63 in 10.0 mi South 13.8 mph 24.2 mph N/A   Clear
6:15 AM 62.6 °F - 51.8 °F 68% 29.62 in 10.0 mi South 17.3 mph 23.0 mph N/A   Clear
6:55 AM 62.6 °F - 51.8 °F 68% 29.61 in 10.0 mi South 20.7 mph 26.5 mph N/A   Clear
7:15 AM 62.6 °F - 51.8 °F 68% 29.60 in 10.0 mi South 17.3 mph 24.2 mph N/A   Clear
7:35 AM 62.6 °F - 51.8 °F 68% 29.59 in 10.0 mi South 16.1 mph 24.2 mph N/A   Partly Cloudy
7:55 AM 62.6 °F - 51.8 °F 68% 29.60 in 10.0 mi South 17.3 mph 24.2 mph N/A   Partly Cloudy
8:15 AM 62.6 °F - 51.8 °F 68% 29.58 in 10.0 mi South 18.4 mph 25.3 mph N/A   Scattered Clouds
8:35 AM 62.6 °F - 53.6 °F 72% 29.57 in 10.0 mi SSE 16.1 mph 24.2 mph N/A   Mostly Cloudy
8:55 AM 64.4 °F - 53.6 °F 68% 29.56 in 10.0 mi South 18.4 mph 26.5 mph N/A   Scattered Clouds
9:15 AM 64.4 °F - 53.6 °F 68% 29.55 in 10.0 mi South 16.1 mph 28.8 mph N/A   Mostly Cloudy
9:35 AM 66.2 °F - 53.6 °F 64% 29.53 in 10.0 mi South 16.1 mph 31.1 mph N/A   Mostly Cloudy
9:55 AM 66.2 °F - 53.6 °F 64% 29.53 in 10.0 mi South 19.6 mph 29.9 mph N/A   Mostly Cloudy
10:15 AM 62.6 °F - 53.6 °F 72% 29.52 in 10.0 mi South 18.4 mph 32.2 mph N/A   Overcast
10:55 AM 62.6 °F - 55.4 °F 77% 29.51 in 10.0 mi South 20.7 mph 31.1 mph N/A   Overcast
11:15 AM 62.6 °F - 55.4 °F 77% 29.50 in 10.0 mi South 17.3 mph 23.0 mph N/A   Overcast
11:35 AM 64.4 °F - 55.4 °F 73% 29.47 in 10.0 mi South 27.6 mph 38.0 mph N/A   Overcast
11:55 AM 62.6 °F - 55.4 °F 77% 29.48 in 10.0 mi South 21.9 mph 41.4 mph N/A   Overcast
12:15 PM 62.6 °F - 55.4 °F 77% 29.47 in 10.0 mi South 25.3 mph 39.1 mph N/A   Overcast
12:35 PM 62.6 °F - 55.4 °F 77% 29.47 in 10.0 mi South 23.0 mph 43.7 mph N/A   Mostly Cloudy
12:55 PM 60.8 °F - 55.4 °F 82% 29.47 in 9.0 mi South 19.6 mph 29.9 mph N/A   Overcast
1:15 PM 60.8 °F - 57.2 °F 88% 29.45 in 10.0 mi South 20.7 mph 29.9 mph N/A   Overcast
1:35 PM 48.2 °F - 39.2 °F 71% 29.49 in 7.0 mi WNW 20.7 mph 34.5 mph 0.07 in   Overcast
1:55 PM 42.8 °F 35.4 °F 39.2 °F 87% 29.54 in 5.0 mi West 15.0 mph 31.1 mph 0.18 in   Overcast
2:15 PM 42.8 °F 35.4 °F 39.2 °F 87% 29.55 in 10.0 mi West 15.0 mph 24.2 mph 0.02 in   Overcast
2:35 PM 42.8 °F 35.4 °F 37.4 °F 81% 29.56 in 10.0 mi West 15.0 mph 23.0 mph 0.03 in   Overcast
2:55 PM 41.0 °F 33.5 °F 37.4 °F 87% 29.58 in 10.0 mi West 13.8 mph 20.7 mph 0.03 in   Overcast
3:15 PM 39.2 °F 32.5 °F 37.4 °F 93% 29.58 in 8.0 mi WNW 10.4 mph 17.3 mph 0.01 in   Overcast
3:35 PM 39.2 °F 30.8 °F 35.6 °F 87% 29.60 in 10.0 mi West 15.0 mph 23.0 mph 0.01 in   Overcast
3:55 PM 39.2 °F 31.2 °F 35.6 °F 87% 29.61 in 5.0 mi West 13.8 mph 17.3 mph 0.01 in   Overcast
4:15 PM 39.2 °F 31.6 °F 35.6 °F 87% 29.62 in 7.0 mi WNW 12.7 mph - 0.01 in   Overcast
4:35 PM 37.4 °F 30.3 °F 33.8 °F 87% 29.63 in 10.0 mi West 10.4 mph 16.1 mph 0.01 in   Overcast
4:55 PM 37.4 °F 30.8 °F 35.6 °F 93% 29.64 in 10.0 mi WNW 9.2 mph - 0.01 in   Overcast
5:15 PM 37.4 °F 30.3 °F 33.8 °F 87% 29.66 in 10.0 mi WNW 10.4 mph - N/A   Overcast
5:35 PM 37.4 °F 32.1 °F 35.6 °F 93% 29.66 in 10.0 mi WNW 6.9 mph - N/A   Overcast
5:55 PM 39.2 °F 35.0 °F 35.6 °F 87% 29.68 in 10.0 mi West 5.8 mph - N/A   Overcast
6:15 PM 39.2 °F 34.2 °F 35.6 °F 87% 29.69 in 10.0 mi West 6.9 mph - N/A   Overcast
6:35 PM 39.2 °F 33.0 °F 35.6 °F 87% 29.68 in 10.0 mi WNW 9.2 mph - N/A   Overcast
6:55 PM 39.2 °F 33.6 °F 35.6 °F 87% 29.69 in 10.0 mi West 8.1 mph - N/A   Mostly Cloudy
7:15 PM 39.2 °F 33.0 °F 33.8 °F 81% 29.70 in 10.0 mi WNW 9.2 mph - N/A   Overcast
7:35 PM 39.2 °F 33.6 °F 33.8 °F 81% 29.70 in 10.0 mi West 8.1 mph - N/A   Overcast
7:55 PM 39.2 °F 35.9 °F 33.8 °F 81% 29.71 in 10.0 mi WNW 4.6 mph - N/A   Overcast
8:15 PM 39.2 °F 35.9 °F 33.8 °F 81% 29.71 in 10.0 mi West 4.6 mph - N/A   Overcast
8:35 PM 39.2 °F 33.6 °F 33.8 °F 81% 29.72 in 10.0 mi NW 8.1 mph - N/A   Overcast
8:55 PM 37.4 °F 30.3 °F 33.8 °F 87% 29.73 in 10.0 mi WNW 10.4 mph - N/A   Overcast
9:15 PM 37.4 °F 30.3 °F 30.2 °F 75% 29.74 in 10.0 mi WNW 10.4 mph - N/A   Overcast
9:35 PM 37.4 °F 30.8 °F 30.2 °F 75% 29.75 in 10.0 mi West 9.2 mph - N/A   Overcast
9:55 PM 37.4 °F 30.3 °F 30.2 °F 75% 29.75 in 10.0 mi West 10.4 mph - N/A   Overcast
10:15 PM 37.4 °F 31.4 °F 30.2 °F 75% 29.76 in 10.0 mi West 8.1 mph - N/A   Overcast
10:35 PM 37.4 °F 27.2 °F 26.6 °F 65% 29.76 in 10.0 mi WSW 19.6 mph 27.6 mph N/A   Overcast
10:55 PM 37.4 °F 28.9 °F 26.6 °F 65% 29.78 in 10.0 mi WSW 13.8 mph 27.6 mph N/A   Overcast
11:15 PM 37.4 °F 27.5 °F 26.6 °F 65% 29.77 in 10.0 mi West 18.4 mph 21.9 mph N/A   Overcast
11:35 PM 37.4 °F 29.8 °F 26.6 °F 65% 29.77 in 10.0 mi WSW 11.5 mph - N/A   Overcast
11:55 PM 37.4 °F 30.3 °F 28.4 °F 70% 29.78 in 10.0 mi West 10.4 mph - N/A   Overcast